Location: Gudip?du
(17.0263°N, 80.8301°E)
Time: 06:05:08
(UTC+00:00)

SL-24 R/B - Pass Details

Date: 03 August 2024
Orbit: 503 x 987 km, 97.5° (Epoch: 10 September)

Event Time Altitude Azimuth Distance (km) Brightness Sun altitude
Exits shadow 14:37:21 54° 102° (ESE) 730 4.0 -20.5°
Maximum altitude 14:37:45 57° 77° (ENE) 715 4.0 -20.6°
Drops below altitude 10° 14:42:09 10° 359° (N) 2,086 7.1 -21.5°
Sets 14:44:34 0° 355° (N) 3,083 8.1 -22.1°
